Rochester/St. Mary\'s Hospita, MN

4:44 AM CDT on September 26, 2017 (GMT -0500)
Rochester/St. Mary\'s Hospita

Weather History for K9MN - September, 2013

Change the Weather History Date:

Wednesday, September 25, 2013

  Actual Average (KRST) Record (KRST)
Temperature  
Mean Temperature 59 °F -  
Max Temperature 69 °F 66 °F 89 °F (1956)
Min Temperature 49 °F 43 °F 26 °F (1893)
Degree Days  
Heating Degree Days 6    
Growing Degree Days 9 (Base 50)    
Moisture  
Dew Point 48 °F    
Average Humidity 69    
Maximum Humidity 95    
Minimum Humidity 40    
Precipitation  
Precipitation 0.00 in - - ()
Sea Level Pressure  
Sea Level Pressure 29.96 in    
Wind  
Wind Speed 6 mph (ESE)    
Max Wind Speed 12 mph    
Max Gust Speed 16 mph    
Visibility 10 miles    
Events      
Averages and records for this station are not official NWS values.
T = Trace of Precipitation, MM = Missing Value Source: NWS Daily Summary

Daily Weather History Graph

Daily Weather History Graph

Search for Another Location

Airport or City:

Trip Planner

Search our weather history database for the weather conditions in past years. The results will help you decide how hot, cold, wet, or windy it might be!

Date:

Astronomy

Sep. 25, 2013 Rise Set
Actual Time 7:00 AM CDT 7:01 PM CDT
Civil Twilight 6:32 AM CDT 7:30 PM CDT
Nautical Twilight 5:58 AM CDT 8:03 PM CDT
Astronomical Twilight 5:24 AM CDT 8:37 PM CDT
Moon 10:57 PM CDT (9/25) 1:17 PM CDT (9/25)
Length of Visible Light 12h 57m
Length of Day
12h 00m
Waning Gibbous, 64% of the Moon is Illuminated
Sep 25
Waning Gibbous
Sep 26
Last Quarter
Oct 4
New
Oct 11
First Quarter
Oct 18
Full

Hourly Weather History & Observations

Time (CDT) Temp. Dew Point Humidity Pressure Visibility Wind Dir Wind Speed Gust Speed Precip Events Conditions
12:14 AM 54.1 °F 49.1 °F 83% 29.96 in 10.0 mi ESE 4.6 mph - N/A   Clear
12:33 AM 55.0 °F 48.7 °F 79% 29.96 in 10.0 mi Calm Calm - N/A   Clear
12:54 AM 54.5 °F 48.7 °F 81% 29.96 in 10.0 mi Calm Calm - N/A   Clear
1:14 AM 54.5 °F 48.9 °F 81% 29.97 in 10.0 mi Calm Calm - N/A   Clear
1:33 AM 54.0 °F 48.6 °F 82% 29.97 in 10.0 mi Calm Calm - N/A   Clear
1:54 AM 53.6 °F 48.6 °F 83% 29.97 in 10.0 mi ESE 3.5 mph - N/A   Clear
2:14 AM 53.6 °F 48.2 °F 82% 29.97 in 10.0 mi Calm Calm - N/A   Clear
2:33 AM 53.1 °F 48.2 °F 84% 29.97 in 10.0 mi East 3.5 mph - N/A   Clear
2:54 AM 53.1 °F 48.2 °F 84% 29.97 in 10.0 mi ESE 3.5 mph - N/A   Clear
3:14 AM 53.1 °F 47.8 °F 82% 29.98 in 10.0 mi ESE 4.6 mph - N/A   Clear
3:33 AM 53.2 °F 48.0 °F 82% 29.98 in 10.0 mi ESE 5.8 mph - N/A   Clear
3:54 AM 52.7 °F 47.7 °F 83% 29.98 in 10.0 mi ESE 6.9 mph - N/A   Clear
4:14 AM 52.0 °F 47.3 °F 84% 29.98 in 10.0 mi ESE 8.1 mph - N/A   Clear
4:33 AM 51.4 °F 47.3 °F 86% 29.98 in 10.0 mi ESE 9.2 mph - N/A   Clear
4:54 AM 51.3 °F 47.8 °F 88% 29.98 in 10.0 mi ESE 10.4 mph - N/A   Clear
5:13 AM 50.9 °F 48.2 °F 90% 29.98 in 10.0 mi ESE 6.9 mph - N/A   Clear
5:33 AM 50.5 °F 48.2 °F 92% 29.98 in 10.0 mi ESE 4.6 mph - N/A   Clear
5:54 AM 50.5 °F 48.2 °F 92% 29.99 in 10.0 mi ESE 8.1 mph - N/A   Clear
6:13 AM 50.4 °F 48.2 °F 92% 29.99 in 10.0 mi ESE 4.6 mph - N/A   Clear
6:33 AM 50.2 °F 47.8 °F 92% 29.99 in 10.0 mi ESE 4.6 mph - N/A   Clear
6:54 AM 49.3 °F 47.5 °F 94% 29.99 in 7.0 mi ESE 5.8 mph - N/A   Clear
7:13 AM 49.1 °F 47.5 °F 94% 29.99 in 7.0 mi ESE 5.8 mph - N/A   Clear
7:33 AM 49.1 °F 47.7 °F 95% 29.99 in 7.0 mi ESE 6.9 mph - N/A   Clear
7:54 AM 49.1 °F 47.3 °F 93% 29.99 in 7.0 mi ESE 8.1 mph - N/A   Clear
8:13 AM 49.3 °F 47.3 °F 93% 29.99 in 7.0 mi ESE 8.1 mph - N/A   Clear
8:33 AM 50.4 °F 48.0 °F 92% 29.99 in 7.0 mi ESE 6.9 mph - N/A   Clear
8:54 AM 52.0 °F 48.9 °F 89% 30.00 in 10.0 mi ESE 8.1 mph - N/A   Clear
9:13 AM 53.6 °F 49.5 °F 86% 30.00 in 10.0 mi ESE 5.8 mph - N/A   Clear
9:33 AM 54.9 °F 50.0 °F 84% 30.01 in 10.0 mi ESE 6.9 mph - N/A   Clear
9:54 AM 56.8 °F 49.3 °F 76% 30.01 in 10.0 mi ESE 9.2 mph - N/A   Clear
10:13 AM 58.8 °F 49.1 °F 70% 30.01 in 10.0 mi East 3.5 mph - N/A   Clear
10:33 AM 59.7 °F 48.6 °F 67% 30.01 in 10.0 mi SE 6.9 mph - N/A   Clear
10:54 AM 61.5 °F 48.6 °F 62% 30.00 in 10.0 mi East 9.2 mph - N/A   Clear
11:13 AM 62.2 °F 48.4 °F 60% 30.00 in 10.0 mi ESE 5.8 mph - N/A   Clear
11:34 AM 63.9 °F 48.6 °F 57% 30.00 in 10.0 mi ESE 8.1 mph - N/A   Clear
11:54 AM 63.5 °F 47.3 °F 56% 29.99 in 10.0 mi ESE 11.5 mph 16.1 mph N/A   Clear
12:13 PM 64.4 °F 48.0 °F 55% 29.99 in 10.0 mi ESE 11.5 mph - N/A   Clear
12:34 PM 65.3 °F 48.4 °F 54% 29.99 in 10.0 mi ESE 6.9 mph - N/A   Clear
12:54 PM 66.9 °F 48.4 °F 51% 29.98 in 10.0 mi ESE 8.1 mph - N/A   Clear
1:13 PM 66.2 °F 48.2 °F 52% 29.98 in 10.0 mi East 6.9 mph - N/A   Clear
1:34 PM 67.3 °F 48.2 °F 50% 29.96 in 10.0 mi East 10.4 mph - N/A   Clear
1:53 PM 67.5 °F 46.4 °F 47% 29.95 in 10.0 mi ESE 6.9 mph - N/A   Clear
2:13 PM 67.3 °F 46.4 °F 47% 29.94 in 10.0 mi ESE 4.6 mph - N/A   Clear
2:34 PM 68.0 °F 45.0 °F 43% 29.94 in 10.0 mi ESE 9.2 mph 16.1 mph N/A   Clear
2:53 PM 68.2 °F 44.6 °F 43% 29.93 in 10.0 mi ESE 9.2 mph - N/A   Clear
3:13 PM 68.5 °F 44.2 °F 42% 29.93 in 10.0 mi ESE 9.2 mph - N/A   Clear
3:34 PM 68.9 °F 43.7 °F 40% 29.93 in 10.0 mi SSE 5.8 mph - N/A   Clear
3:53 PM 68.7 °F 44.2 °F 41% 29.92 in 10.0 mi ESE 6.9 mph - N/A   Clear
4:13 PM 69.4 °F 44.4 °F 41% 29.92 in 10.0 mi ESE 9.2 mph - N/A   Clear
4:34 PM 69.6 °F 45.1 °F 41% 29.92 in 10.0 mi ESE 8.1 mph - N/A   Clear
4:53 PM 68.9 °F 45.1 °F 42% 29.92 in 10.0 mi ESE 5.8 mph - N/A   Clear
5:13 PM 68.9 °F 45.9 °F 44% 29.92 in 10.0 mi East 10.4 mph - N/A   Clear
5:34 PM 68.4 °F 45.1 °F 43% 29.92 in 10.0 mi ESE 9.2 mph - N/A   Clear
5:53 PM 68.0 °F 43.5 °F 41% 29.92 in 10.0 mi ESE 8.1 mph - N/A   Clear
6:13 PM 67.5 °F 43.7 °F 42% 29.92 in 10.0 mi East 9.2 mph - N/A   Clear
6:34 PM 66.4 °F 45.1 °F 46% 29.92 in 10.0 mi ESE 8.1 mph - N/A   Clear
6:53 PM 65.5 °F 45.9 °F 49% 29.91 in 10.0 mi East 8.1 mph - N/A   Clear
7:14 PM 64.4 °F 46.8 °F 53% 29.91 in 10.0 mi East 8.1 mph - N/A   Clear
7:34 PM 63.0 °F 47.1 °F 56% 29.92 in 10.0 mi ESE 6.9 mph - N/A   Clear
7:53 PM 62.4 °F 47.3 °F 58% 29.92 in 10.0 mi ESE 8.1 mph - N/A   Clear
8:14 PM 61.5 °F 47.3 °F 60% 29.92 in 10.0 mi East 8.1 mph - N/A   Clear
8:34 PM 60.8 °F 47.5 °F 62% 29.92 in 10.0 mi ESE 8.1 mph - N/A   Clear
8:53 PM 59.7 °F 47.8 °F 65% 29.92 in 10.0 mi ESE 8.1 mph - N/A   Clear
9:14 PM 59.0 °F 48.2 °F 67% 29.92 in 10.0 mi ESE 8.1 mph - N/A   Clear
9:33 PM 58.6 °F 48.6 °F 69% 29.92 in 10.0 mi ESE 6.9 mph - N/A   Clear
9:53 PM 58.3 °F 49.1 °F 71% 29.92 in 10.0 mi ESE 9.2 mph - N/A   Clear
10:14 PM 58.1 °F 49.3 °F 72% 29.92 in 10.0 mi ESE 6.9 mph - N/A   Clear
10:33 PM 57.7 °F 49.5 °F 74% 29.92 in 10.0 mi ESE 8.1 mph - N/A   Clear
10:53 PM 57.6 °F 49.6 °F 75% 29.93 in 10.0 mi ESE 6.9 mph - N/A   Clear
11:14 PM 57.4 °F 50.0 °F 76% 29.93 in 10.0 mi ESE 6.9 mph - N/A   Clear
11:33 PM 57.2 °F 50.0 °F 77% 29.94 in 10.0 mi ESE 9.2 mph - N/A   Clear
11:53 PM 56.8 °F 50.0 °F 78% 29.94 in 10.0 mi ESE 10.4 mph - N/A   Clear